User: anonymous   Login
Location: Gleizolles
(44.4833°N, 6.7667°E)
Time: 09:07:51
(UTC+00:00)
Language:

FALCONSAT 3 - Orbit

View from above orbital plane
View from above orbital plane
View from above satellite
View from above satellite

Ground track
Ground track

The orbit data is extracted from the following two-line orbital elements,

1 30776U 07006E   22329.89337877  .00113846  00000-0  74768-3 0  9994
2 30776  35.4263 270.8508 0008147 242.6544 117.3365 15.74346912874822
Epoch (UTC): 25 November 2022 21:26:27
Eccentricity: 0.0008147
inclination: 35.4263°
perigee height: 341 km
apogee height: 352 km
right ascension of ascending node: 270.8508°
argument of perigee: 242.6544°
revolutions per day: 15.74346912
mean anomaly at epoch: 117.3365°
orbit number at epoch: 87482

The dashed part of the orbit path shows where the satellite is in the earth's shadow,  

DLR